Weather History for KCVX - October, 2012

Change the Weather History Date:

Sunday, October 7, 2012

  Actual Average Record
Temperature  
Mean Temperature 40 °F -  
Max Temperature 45 °F - - ()
Min Temperature 36 °F - - ()
Degree Days  
Heating Degree Days 24    
Moisture  
Dew Point 35 °F    
Average Humidity 78    
Maximum Humidity 97    
Minimum Humidity 59    
Precipitation  
Precipitation 0.00 in - - ()
Sea Level Pressure  
Sea Level Pressure 30.09 in    
Wind  
Wind Speed 8 mph (SSW)    
Max Wind Speed 12 mph    
Max Gust Speed 18 mph    
Visibility 10 miles    
Events Rain    
T = Trace of Precipitation, MM = Missing Value Source: NWS Daily Summary

Daily Weather History Graph

Daily Weather History Graph

Search for Another Location

Airport or City:

Trip Planner

Search our weather history database for the weather conditions in past years. The results will help you decide how hot, cold, wet, or windy it might be!

Date:

Astronomy

Oct. 07, 2012 Rise Set
Actual Time 7:47 AM EDT 7:09 PM EDT
Civil Twilight 7:17 AM EDT 7:38 PM EDT
Nautical Twilight 6:43 AM EDT 8:12 PM EDT
Astronomical Twilight 6:09 AM EDT 8:47 PM EDT
Moon No Moon Rise 2:35 PM EDT (10/7)
Length of Visible Light 12h 20m
Length of Day
11h 21m
Waning Gibbous, 56% of the Moon is Illuminated
Oct 7
Waning Gibbous
Oct 8
Last Quarter
Oct 15
New
Oct 21
First Quarter
Oct 29
Full

Hourly Weather History & Observations

Time (EDT) Temp. Windchill Dew Point Humidity Pressure Visibility Wind Dir Wind Speed Gust Speed Precip Events Conditions
12:14 AM 43.0 °F 36.8 °F 31.3 °F 63% 30.13 in 10.0 mi NW 11.5 mph 18.4 mph N/A   Mostly Cloudy
12:34 AM 42.8 °F 38.0 °F 31.5 °F 64% 30.12 in 10.0 mi NW 8.1 mph - N/A   Overcast
12:54 AM 42.8 °F 37.0 °F 30.2 °F 61% 30.12 in 10.0 mi WNW 10.4 mph - N/A   Mostly Cloudy
1:14 AM 43.0 °F 37.7 °F 30.6 °F 62% 30.12 in 10.0 mi NNW 9.2 mph 16.1 mph N/A   Scattered Clouds
1:34 AM 43.0 °F 38.2 °F 31.5 °F 64% 30.11 in 10.0 mi NNW 8.1 mph - N/A   Scattered Clouds
1:54 AM 43.3 °F 37.2 °F 32.0 °F 64% 30.11 in 10.0 mi WNW 11.5 mph 17.3 mph N/A   Mostly Cloudy
2:14 AM 42.6 °F 37.8 °F 30.0 °F 61% 30.11 in 10.0 mi NW 8.1 mph - N/A   Mostly Cloudy
2:34 AM 42.6 °F 37.8 °F 29.3 °F 59% 30.11 in 10.0 mi WNW 8.1 mph - N/A   Clear
2:54 AM 42.8 °F 38.0 °F 31.1 °F 63% 30.11 in 10.0 mi NW 8.1 mph - N/A   Clear
3:14 AM 43.0 °F 38.2 °F 31.6 °F 64% 30.10 in 10.0 mi NNW 8.1 mph - N/A   Scattered Clouds
3:34 AM 43.2 °F 38.4 °F 31.5 °F 63% 30.10 in 10.0 mi North 8.1 mph - N/A   Scattered Clouds
3:54 AM 42.8 °F 36.6 °F 32.5 °F 67% 30.09 in 10.0 mi NNW 11.5 mph 16.1 mph N/A   Scattered Clouds
4:14 AM 42.6 °F 37.8 °F 31.1 °F 64% 30.09 in 10.0 mi NNW 8.1 mph - N/A   Mostly Cloudy
4:34 AM 42.4 °F 38.8 °F 30.0 °F 61% 30.10 in 10.0 mi WNW 5.8 mph - N/A   Overcast
4:54 AM 42.8 °F 39.3 °F 34.0 °F 71% 30.10 in 10.0 mi North 5.8 mph - N/A   Overcast
5:14 AM 39.9 °F 36.7 °F 33.6 °F 78% 30.10 in 10.0 mi SSE 4.6 mph - N/A   Overcast
5:34 AM 39.4 °F 33.8 °F 33.4 °F 79% 30.10 in 10.0 mi SE 8.1 mph - N/A   Overcast
5:54 AM 38.7 °F 33.6 °F 34.2 °F 84% 30.10 in 10.0 mi SSE 6.9 mph - N/A   Light Drizzle
6:14 AM 37.9 °F 32.1 °F 35.1 °F 89% 30.10 in 10.0 mi SSE 8.1 mph - N/A   Overcast
6:34 AM 37.9 °F 33.5 °F 35.8 °F 92% 30.10 in 10.0 mi SE 5.8 mph - N/A   Overcast
6:54 AM 37.8 °F 33.3 °F 36.0 °F 93% 30.10 in 10.0 mi SSE 5.8 mph - N/A   Overcast
7:14 AM 37.6 °F 32.3 °F 35.6 °F 93% 30.10 in 10.0 mi SSE 6.9 mph - N/A   Overcast
7:54 AM 36.7 °F 32.0 °F 35.4 °F 95% 30.10 in 4.0 mi South 5.8 mph - N/A Rain Light Rain
8:14 AM 36.5 °F 31.8 °F 35.6 °F 97% 30.10 in 10.0 mi South 5.8 mph - N/A   Overcast
8:34 AM 37.0 °F 31.0 °F 35.8 °F 95% 30.11 in 10.0 mi South 8.1 mph - N/A   Overcast
8:54 AM 37.4 °F 32.1 °F 36.0 °F 95% 30.12 in 10.0 mi South 6.9 mph - N/A Rain Light Rain
9:14 AM 37.6 °F 33.1 °F 36.1 °F 95% 30.12 in 10.0 mi South 5.8 mph - N/A Rain Light Rain
9:34 AM 38.3 °F 31.9 °F 36.9 °F 95% 30.12 in 10.0 mi SSE 9.2 mph - N/A Rain Light Rain
9:54 AM 38.5 °F 34.1 °F 36.9 °F 94% 30.12 in 10.0 mi SSE 5.8 mph - N/A Rain Rain
10:14 AM 38.5 °F 33.4 °F 37.2 °F 95% 30.12 in 7.0 mi SE 6.9 mph - N/A Rain Light Rain
10:34 AM 39.4 °F 34.5 °F 37.8 °F 94% 30.12 in 10.0 mi SSE 6.9 mph - N/A   Overcast
10:54 AM 40.1 °F 36.1 °F 38.5 °F 94% 30.12 in 10.0 mi SSE 5.8 mph - N/A Rain Light Rain
11:14 AM 40.1 °F 38.0 °F 38.3 °F 93% 30.12 in 7.0 mi SSE 3.5 mph - N/A Rain Rain
11:34 AM 40.1 °F 36.1 °F 37.9 °F 92% 30.12 in 5.0 mi SE 5.8 mph - N/A Rain Light Rain
11:54 AM 41.0 °F 37.1 °F 39.2 °F 93% 30.11 in 10.0 mi ESE 5.8 mph - N/A   Overcast
12:14 PM 42.8 °F 37.5 °F 40.3 °F 91% 30.10 in 10.0 mi SE 9.2 mph - N/A   Overcast
12:34 PM 43.0 °F 38.8 °F 39.7 °F 88% 30.10 in 10.0 mi SE 6.9 mph - N/A   Overcast
12:54 PM 44.6 °F 42.2 °F 40.8 °F 87% 30.10 in 10.0 mi South 4.6 mph - N/A   Overcast
1:14 PM 44.4 °F 40.5 °F 38.5 °F 80% 30.10 in 10.0 mi SW 6.9 mph - N/A Rain Rain
1:34 PM 43.9 °F 37.9 °F 37.9 °F 80% 30.10 in 10.0 mi SW 11.5 mph - N/A   Overcast
1:54 PM 41.9 °F 36.9 °F 37.2 °F 83% 30.09 in 10.0 mi South 8.1 mph - N/A   Overcast
2:14 PM 43.7 °F 39.1 °F 37.2 °F 78% 30.08 in 10.0 mi SW 8.1 mph - N/A   Overcast
2:34 PM 45.7 °F 42.0 °F 37.9 °F 74% 30.08 in 10.0 mi WSW 6.9 mph - N/A   Overcast
2:54 PM 44.2 °F 42.7 °F 37.6 °F 77% 30.07 in 10.0 mi WNW 3.5 mph - N/A   Overcast
3:14 PM 44.4 °F 40.0 °F 37.4 °F 76% 30.07 in 7.0 mi South 8.1 mph - N/A   Overcast
3:34 PM 43.7 °F 40.3 °F 36.7 °F 76% 30.08 in 10.0 mi SSW 5.8 mph - N/A   Overcast
3:54 PM 43.7 °F 41.1 °F 37.2 °F 78% 30.07 in 10.0 mi South 4.6 mph - N/A   Overcast
4:14 PM 43.3 °F 39.9 °F 36.7 °F 77% 30.07 in 10.0 mi South 5.8 mph - N/A   Overcast
4:34 PM 42.8 °F 39.3 °F 36.9 °F 80% 30.07 in 7.0 mi SSW 5.8 mph - N/A   Unknown
4:54 PM 43.0 °F 38.8 °F 38.3 °F 84% 30.06 in 10.0 mi SW 6.9 mph - N/A   Overcast
5:14 PM 43.0 °F 38.2 °F 37.0 °F 80% 30.06 in 10.0 mi SW 8.1 mph - N/A   Overcast
5:34 PM 43.2 °F 39.7 °F 36.7 °F 78% 30.06 in 10.0 mi SSW 5.8 mph - N/A   Overcast
5:54 PM 43.9 °F 39.9 °F 36.5 °F 75% 30.05 in 10.0 mi SW 6.9 mph - N/A   Overcast
6:14 PM 44.6 °F 41.4 °F 36.0 °F 72% 30.06 in 10.0 mi SSW 5.8 mph - N/A   Overcast
6:34 PM 44.4 °F 41.2 °F 35.2 °F 70% 30.06 in 10.0 mi SW 5.8 mph - N/A   Overcast
6:54 PM 44.2 °F 41.0 °F 34.0 °F 67% 30.05 in 10.0 mi SSW 5.8 mph - N/A   Mostly Cloudy
7:14 PM 43.2 °F 40.5 °F 32.9 °F 67% 30.05 in 10.0 mi SSW 4.6 mph - N/A   Mostly Cloudy
7:34 PM 42.4 °F 38.8 °F 32.0 °F 67% 30.05 in 10.0 mi South 5.8 mph - N/A   Mostly Cloudy
7:54 PM 41.9 °F 39.0 °F 31.5 °F 66% 30.05 in 10.0 mi South 4.6 mph - N/A   Mostly Cloudy
8:14 PM 41.0 °F 38.0 °F 31.6 °F 69% 30.05 in 10.0 mi South 4.6 mph - N/A   Scattered Clouds
8:34 PM 40.6 °F 36.7 °F 30.9 °F 68% 30.06 in 10.0 mi SSW 5.8 mph - N/A   Scattered Clouds
8:54 PM 40.5 °F 36.5 °F 30.6 °F 68% 30.06 in 10.0 mi South 5.8 mph - N/A   Clear
9:14 PM 40.3 °F 36.3 °F 30.2 °F 67% 30.06 in 10.0 mi South 5.8 mph - N/A   Clear
9:34 PM 40.6 °F 37.5 °F 30.2 °F 66% 30.06 in 10.0 mi South 4.6 mph - N/A   Clear
9:54 PM 38.8 °F 35.4 °F 31.1 °F 74% 30.06 in 10.0 mi SSE 4.6 mph - N/A   Clear
10:14 PM 37.8 °F 32.5 °F 31.6 °F 79% 30.06 in 10.0 mi SSE 6.9 mph - N/A   Clear
10:34 PM 37.8 °F 31.8 °F 32.2 °F 80% 30.06 in 10.0 mi SSE 8.1 mph - N/A   Clear
10:54 PM 38.3 °F 32.5 °F 33.4 °F 83% 30.06 in 10.0 mi South 8.1 mph - N/A   Clear
11:14 PM 38.3 °F 32.5 °F 33.8 °F 84% 30.06 in 10.0 mi South 8.1 mph - N/A   Scattered Clouds
11:34 PM 38.5 °F 32.7 °F 34.0 °F 84% 30.06 in 10.0 mi South 8.1 mph - N/A   Mostly Cloudy
11:54 PM 38.3 °F 32.5 °F 33.8 °F 84% 30.05 in 10.0 mi South 8.1 mph - N/A   Mostly Cloudy